Weather History for Hibbing, MN

Change the Weather History Date:

Friday, March 22, 2013

  Actual Average Record
Temperature  
Mean Temperature 16 °F -  
Max Temperature 35 °F 38 °F 62 °F (2012)
Min Temperature -2 °F 15 °F -15 °F (1974)
Degree Days  
Heating Degree Days 48    
Moisture  
Dew Point 8 °F    
Average Humidity 67    
Maximum Humidity 84    
Minimum Humidity 48    
Precipitation  
Precipitation 0.00 in - - ()
Sea Level Pressure  
Sea Level Pressure 30.12 in    
Wind  
Wind Speed 3 mph (NNW)    
Max Wind Speed 7 mph    
Max Gust Speed -    
Visibility 10 miles    
Events      
Averages and records for this station are not official NWS values.
T = Trace of Precipitation, MM = Missing Value Source: NWS Daily Summary

Daily Weather History Graph

Daily Weather History Graph

Search for Another Location

Airport:

Trip Planner

Search our weather history database for the weather conditions in past years. The results will help you decide how hot, cold, wet, or windy it might be!

Date:

Astronomy

Mar. 22, 2013 Rise Set
Actual Time 7:09 AM CDT 7:27 PM CDT
Civil Twilight 6:39 AM CDT 7:58 PM CDT
Nautical Twilight 6:03 AM CDT 8:34 PM CDT
Astronomical Twilight 5:25 AM CDT 9:11 PM CDT
Moon 2:38 PM CDT (3/22) 4:27 AM CDT (3/22)
Length of Visible Light 13h 18m
Length of Day
12h 17m
Waxing Gibbous, 77% of the Moon is Illuminated
Mar 22
Waxing Gibbous
Mar 27
Full
Apr 2
Last Quarter
Apr 10
New
Apr 18
First Quarter

Hourly Weather History & Observations

Time (CDT) Temp. Windchill Dew Point Humidity Pressure Visibility Wind Dir Wind Speed Gust Speed Precip Events Conditions
12:53 AM 5.0 °F -4.1 °F 1.0 °F 84% 30.12 in 10.0 mi NW 4.6 mph - N/A   Clear
1:53 AM 1.0 °F -6.7 °F -4.0 °F 79% 30.13 in 10.0 mi NW 3.5 mph - N/A   Clear
2:53 AM 3.0 °F -4.4 °F -2.9 °F 76% 30.13 in 10.0 mi NW 3.5 mph - N/A   Clear
3:53 AM -0.0 °F - -6.0 °F 76% 30.13 in 10.0 mi Calm Calm - N/A   Clear
4:53 AM -2.0 °F - -6.0 °F 83% 30.13 in 10.0 mi Calm Calm - N/A   Clear
5:53 AM -0.9 °F - -7.1 °F 75% 30.13 in 10.0 mi Calm Calm - N/A   Clear
6:53 AM -2.0 °F - -9.0 °F 72% 30.13 in 10.0 mi Calm Calm - N/A   Clear
7:53 AM 3.0 °F - -2.0 °F 80% 30.14 in 10.0 mi Calm Calm - N/A   Clear
8:53 AM 10.9 °F - 3.9 °F 73% 30.14 in 10.0 mi Calm Calm - N/A   Clear
9:53 AM 21.9 °F 13.4 °F 12.0 °F 66% 30.13 in 10.0 mi NE 6.9 mph - N/A   Mostly Cloudy
10:53 AM 26.1 °F 21.9 °F 15.1 °F 63% 30.12 in 10.0 mi Variable 3.5 mph - N/A   Clear
11:53 AM 26.1 °F 18.4 °F 15.1 °F 63% 30.12 in 10.0 mi NNW 6.9 mph - N/A   Mostly Cloudy
12:53 PM 28.9 °F - 15.1 °F 56% 30.12 in 10.0 mi Calm Calm - N/A   Overcast
1:48 PM 30.2 °F 25.4 °F 15.8 °F 55% 30.02 in 10.0 mi NNW 4.6 mph - 0.00 in   Scattered Clouds
1:53 PM 30.9 °F - 16.0 °F 54% 30.11 in 10.0 mi Calm Calm - 0.00 in   Partly Cloudy
2:53 PM 30.9 °F 26.2 °F 17.1 °F 57% 30.10 in 10.0 mi NW 4.6 mph - 0.00 in   Clear
3:53 PM 32.0 °F 26.4 °F 17.1 °F 54% 30.09 in 10.0 mi NW 5.8 mph - N/A   Clear
4:53 PM 35.1 °F 32.2 °F 17.1 °F 48% 30.09 in 10.0 mi North 3.5 mph - N/A   Clear
5:53 PM 34.0 °F 31.0 °F 17.1 °F 50% 30.10 in 10.0 mi NW 3.5 mph - N/A   Clear
6:53 PM 33.1 °F 28.7 °F 16.0 °F 50% 30.12 in 10.0 mi NNE 4.6 mph - N/A   Clear
7:53 PM 28.0 °F 24.2 °F 15.1 °F 58% 30.12 in 10.0 mi NNE 3.5 mph - N/A   Clear
8:53 PM 19.9 °F - 12.9 °F 74% 30.13 in 10.0 mi Calm Calm - N/A   Clear
9:53 PM 18.0 °F 12.7 °F 12.0 °F 78% 30.13 in 10.0 mi NNW 3.5 mph - N/A   Clear
10:53 PM 15.1 °F - 10.0 °F 80% 30.13 in 10.0 mi Calm Calm - N/A   Clear
11:53 PM 12.9 °F - 8.1 °F 81% 30.13 in 10.0 mi Calm Calm - N/A   Clear